User: anonymous   Login
Location: Irma
(52.9170°N, 111.2330°W)
Time: 01:14:43
(UTC-06:00)
Language:

deb Chang Zheng 4 - Orbit

View from above orbital plane
View from above orbital plane
View from above satellite
View from above satellite

Ground track
Ground track

The orbit data is extracted from the following two-line orbital elements,

1 20847U 90081K   17291.83870041  .00002347  00000-0  31010-3 0  9994
2 20847  98.5189 183.6748 0018584  33.0881 327.1488 14.80961482424106
Epoch (UTC): 18 October 2017 20:07:43
Eccentricity: 0.0018584
inclination: 98.5189°
perigee height: 613 km
apogee height: 639 km
right ascension of ascending node: 183.6748°
argument of perigee: 33.0881°
revolutions per day: 14.80961482
mean anomaly at epoch: 327.1488°
orbit number at epoch: 42410

The dashed part of the orbit path shows where the satellite is in the earth's shadow,  

DLR